Weather History for Ashtabula, OH

Change the Weather History Date:

Sunday, February 16, 2014

  Actual Average (KYNG) Record (KYNG)
Temperature  
Mean Temperature 12 °F 28 °F  
Max Temperature 23 °F 36 °F 63 °F (1990)
Min Temperature 1 °F 21 °F -4 °F (1958)
Degree Days  
Heating Degree Days 53 37  
Month to date heating degree days 605  
Since 1 July heating degree days 4228  
Cooling Degree Days 0 0  
Month to date cooling degree days 0  
Year to date cooling degree days 0  
Moisture  
Dew Point 8 °F    
Average Humidity 77    
Maximum Humidity 86    
Minimum Humidity 68    
Precipitation  
Precipitation 0.06 in 0.07 in 1.25 in (1976)
Month to date precipitation 1.19  
Year to date precipitation 3.74  
Snow  
Snow 0.00 in 0.50 in - ()
Month to date snowfall 7.2  
Since 1 July snowfall 43.2  
Snow Depth -    
Sea Level Pressure  
Sea Level Pressure 30.08 in    
Wind  
Wind Speed 4 mph (NW)    
Max Wind Speed 10 mph    
Max Gust Speed -    
Visibility 5 miles    
Events Snow    
T = Trace of Precipitation, MM = Missing Value Source: NWS Daily Summary

Daily Weather History Graph

Daily Weather History Graph

Search for Another Location

Airport:

Trip Planner

Search our weather history database for the weather conditions in past years. The results will help you decide how hot, cold, wet, or windy it might be!

Date:

Astronomy

Feb. 16, 2014 Rise Set
Actual Time 7:16 AM EST 5:57 PM EST
Civil Twilight 6:48 AM EST 6:25 PM EST
Nautical Twilight 6:15 AM EST 6:58 PM EST
Astronomical Twilight 5:43 AM EST 7:30 PM EST
Moon 7:55 PM EST 7:43 AM EST
Length of Visible Light 11h 37m
Length of Day
10h 40m
Full, 97% of the Moon is Illuminated
Feb 16
Full
Feb 22
Last Quarter
Mar 1
New
Mar 8
First Quarter
Mar 16
Full

Hourly Weather History & Observations

Time (EST) Temp. Windchill Dew Point Humidity Pressure Visibility Wind Dir Wind Speed Gust Speed Precip Events Conditions
12:53 AM 1.9 °F - -4.0 °F 76% 30.09 in 10.0 mi Calm Calm - N/A   Clear
1:53 AM 1.9 °F - -4.0 °F 76% 30.09 in 10.0 mi Calm Calm - N/A   Clear
2:53 AM 1.9 °F -5.6 °F -2.9 °F 80% 30.07 in 10.0 mi SSE 3.5 mph - N/A   Clear
3:53 AM 1.9 °F - -4.0 °F 76% 30.06 in 10.0 mi Calm Calm - N/A   Clear
4:53 AM 3.0 °F -4.4 °F -2.0 °F 80% 30.05 in 10.0 mi SE 3.5 mph - N/A   Clear
5:53 AM 3.9 °F - -0.9 °F 80% 30.04 in 10.0 mi Calm Calm - N/A   Partly Cloudy
6:53 AM 7.0 °F -5.7 °F 1.9 °F 80% 30.03 in 9.0 mi South 8.1 mph - N/A   Mostly Cloudy
7:10 AM 6.8 °F -3.5 °F 1.4 °F 79% 29.98 in 9.0 mi South 5.8 mph - N/A   Overcast
7:53 AM 8.1 °F -0.5 °F 3.0 °F 80% 30.04 in 7.0 mi South 4.6 mph - N/A   Overcast
8:05 AM 8.6 °F -1.3 °F 3.2 °F 79% 29.99 in 7.0 mi South 5.8 mph - N/A   Overcast
8:13 AM 8.6 °F -1.3 °F 3.2 °F 79% 30.00 in 7.0 mi South 5.8 mph - N/A   Overcast
8:53 AM 10.0 °F 1.8 °F 5.0 °F 80% 30.06 in 7.0 mi SSE 4.6 mph - N/A   Overcast
9:53 AM 12.9 °F 5.2 °F 7.0 °F 77% 30.06 in 5.0 mi SSE 4.6 mph - N/A   Haze
10:04 AM 12.2 °F - 8.6 °F 85% 30.00 in 1.8 mi Calm Calm - 0.00 in Snow Light Snow
10:18 AM 14.0 °F 6.5 °F 8.6 °F 79% 30.00 in 1.0 mi South 4.6 mph - 0.00 in Snow Light Snow
10:28 AM 14.0 °F 6.5 °F 10.4 °F 86% 30.00 in 1.2 mi South 4.6 mph - 0.00 in Snow Light Snow
10:46 AM 15.8 °F 7.2 °F 10.4 °F 79% 30.00 in 1.0 mi South 5.8 mph - 0.00 in Snow Light Snow
10:53 AM 15.1 °F 6.4 °F 10.0 °F 80% 30.06 in 1.0 mi SSW 5.8 mph - 0.00 in Snow Light Snow
11:00 AM 15.8 °F 7.2 °F 10.4 °F 79% 30.00 in 0.8 mi South 5.8 mph - 0.00 in Snow Light Snow
11:24 AM 15.8 °F 10.2 °F 10.4 °F 79% 30.00 in 1.0 mi SSE 3.5 mph - 0.00 in Snow Light Snow
11:41 AM 15.8 °F 8.6 °F 10.4 °F 79% 29.99 in 1.5 mi SSE 4.6 mph - 0.00 in Snow Light Snow
11:51 AM 17.6 °F 10.7 °F 12.2 °F 79% 29.99 in 1.8 mi SSE 4.6 mph - 0.00 in Snow Light Snow
11:53 AM 17.1 °F 10.0 °F 12.0 °F 81% 30.05 in 1.8 mi South 4.6 mph - 0.00 in Snow Light Snow
12:13 PM 19.4 °F - 12.2 °F 74% 29.99 in 2.0 mi Calm Calm - 0.00 in Snow Light Snow
12:30 PM 21.2 °F - 15.8 °F 80% 29.98 in 4.0 mi Calm Calm - 0.00 in Snow Light Snow
12:53 PM 21.0 °F - 14.0 °F 74% 30.03 in 5.0 mi Calm Calm - 0.01 in Snow Light Snow
1:22 PM 21.2 °F - 15.8 °F 80% 29.98 in 4.0 mi Calm Calm - 0.04 in Snow Light Snow
1:53 PM 21.9 °F 13.4 °F 15.1 °F 75% 30.03 in 3.0 mi North 6.9 mph - 0.05 in Snow Light Snow
2:05 PM 23.0 °F 13.9 °F 15.8 °F 74% 29.98 in 2.0 mi NNE 8.1 mph - 0.00 in Snow Light Snow
2:15 PM 23.0 °F 14.7 °F 15.8 °F 74% 29.98 in 2.0 mi Variable 6.9 mph - 0.00 in Snow Light Snow
2:50 PM 21.2 °F 13.6 °F 14.0 °F 74% 29.99 in 2.5 mi North 5.8 mph - 0.00 in Snow Light Snow
2:53 PM 21.9 °F 12.5 °F 14.0 °F 72% 30.05 in 2.5 mi North 8.1 mph - 0.00 in Snow Light Snow
2:56 PM 21.2 °F 13.6 °F 12.2 °F 68% 30.00 in 3.0 mi North 5.8 mph - 0.00 in Snow Light Snow
3:05 PM 21.2 °F 11.7 °F 12.2 °F 68% 30.00 in 2.5 mi North 8.1 mph - 0.00 in Snow Light Snow
3:07 PM 21.2 °F 12.6 °F 12.2 °F 68% 30.00 in 2.5 mi North 6.9 mph - 0.00 in Snow Light Snow
3:16 PM 21.2 °F 14.9 °F 12.2 °F 68% 30.01 in 2.5 mi North 4.6 mph - 0.00 in Snow Light Snow
3:23 PM 21.2 °F 11.7 °F 12.2 °F 68% 30.01 in 3.0 mi North 8.1 mph - 0.00 in Snow Light Snow
3:38 PM 19.4 °F 12.8 °F 12.2 °F 74% 30.03 in 3.0 mi North 4.6 mph - 0.00 in Snow Light Snow
3:53 PM 19.9 °F 10.1 °F 12.0 °F 71% 30.09 in 4.0 mi NNW 8.1 mph - 0.00 in Snow Light Snow
4:19 PM 19.4 °F 10.4 °F 10.4 °F 68% 30.05 in 5.0 mi North 6.9 mph - 0.00 in Snow Light Snow
4:53 PM 19.0 °F 7.5 °F 10.0 °F 68% 30.15 in 10.0 mi NW 10.4 mph - 0.00 in   Mostly Cloudy
5:08 PM 17.6 °F 6.4 °F 8.6 °F 68% 30.10 in 10.0 mi NNW 9.2 mph - N/A   Overcast
5:48 PM 15.8 °F 8.6 °F 10.4 °F 79% 30.14 in 2.5 mi NNW 4.6 mph - 0.00 in Snow Light Snow
5:53 PM 16.0 °F 7.4 °F 10.0 °F 77% 30.20 in 3.0 mi NNW 5.8 mph - 0.00 in Snow Light Snow
6:00 PM 15.8 °F 7.2 °F 10.4 °F 79% 30.15 in 2.0 mi NW 5.8 mph - 0.00 in Snow Light Snow
6:20 PM 15.8 °F 8.6 °F 8.6 °F 73% 30.16 in 5.0 mi NW 4.6 mph - 0.00 in Snow Light Snow
6:53 PM 12.9 °F 6.9 °F 8.1 °F 81% 30.25 in 7.0 mi NW 3.5 mph - 0.00 in   Clear
7:10 PM 12.2 °F 4.3 °F 8.6 °F 85% 30.20 in 5.0 mi WNW 4.6 mph - N/A   Mostly Cloudy
7:53 PM 14.0 °F 6.5 °F 10.0 °F 84% 30.28 in 4.0 mi WNW 4.6 mph - 0.00 in Snow Light Snow
8:53 PM 14.0 °F 3.9 °F 9.0 °F 80% 30.30 in 5.0 mi NNW 6.9 mph - 0.00 in Snow Light Snow
9:45 PM 10.4 °F -0.4 °F 6.8 °F 85% 30.27 in 10.0 mi NNW 6.9 mph - 0.00 in   Scattered Clouds
9:53 PM 10.9 °F 1.4 °F 5.0 °F 77% 30.33 in 10.0 mi NNW 5.8 mph - 0.00 in   Scattered Clouds
10:53 PM 8.1 °F 1.4 °F 3.0 °F 80% 30.37 in 10.0 mi West 3.5 mph - N/A   Clear
11:53 PM 1.9 °F - -2.0 °F 83% 30.39 in 10.0 mi Calm Calm - N/A   Partly Cloudy